Overview Statistics Trail Chart Weather Telemetry Raw packets
 

This is the latest recevied weather packets stored in our database for station/object AI5BL. If no packets are shown the sender has not sent any weather packets the latest 10 day(s).

<< 62 63 64 65 66 67 68 >>
Time Temp. Humidity Pressure Rain* Wind** Luminosity Snow
1788225422 27.22° C 83% 1018.7 hPa 0 mm - 0 W/m² -
1788225121 27.78° C 82% 1018.7 hPa 0 mm - 0 W/m² -
1788224816 27.78° C 81% 1018.8 hPa 0 mm - 0 W/m² -
1788224511 27.78° C 82% 1018.7 hPa 0 mm - 0 W/m² -
1788224210 27.78° C 81% 1018.6 hPa 0 mm - 0 W/m² -
1788223906 27.78° C 80% 1018.6 hPa 0 mm - 0 W/m² -
1788223605 27.78° C 81% 1018.7 hPa 0 mm - 0 W/m² -
1788223300 28.33° C 81% 1018.7 hPa 0 mm - 0 W/m² -
1788222995 28.33° C 80% 1018.8 hPa 0 mm - 0 W/m² -
1788222694 28.33° C 79% 1018.8 hPa 0 mm - 0 W/m² -
1788222393 28.33° C 79% 1018.7 hPa 0 mm - 1 W/m² -
1788222088 28.89° C 79% 1018.8 hPa 0 mm - 1 W/m² -
1788221783 28.89° C 77% 1018.6 hPa 0 mm - 3 W/m² -
1788221479 28.89° C 77% 1018.4 hPa 0 mm - 5 W/m² -
1788221174 28.89° C 77% 1018.2 hPa 0 mm - 8 W/m² -
1788220870 29.44° C 75% 1018.2 hPa 0 mm - 11 W/m² -
1788220563 29.44° C 74% 1018 hPa 0 mm - 12 W/m² -
1788220259 29.44° C 75% 1018 hPa 0 mm - 15 W/m² -
1788219958 29.44° C 74% 1018.1 hPa 0 mm - 18 W/m² -
1788219663 30° C 73% 1018.1 hPa 0 mm - 24 W/m² -
1788219348 30° C 73% 1018.1 hPa 0 mm - 25 W/m² -
1788219044 30° C 74% 1018.2 hPa 0 mm - 30 W/m² -
1788218755 30° C 71% 1018.3 hPa 0 mm - 29 W/m² -
1788218435 30.56° C 71% 1018.1 hPa 0 mm - 35 W/m² -
1788218132 30.56° C 70% 1018.2 hPa 0 mm - 38 W/m² -

* Rain latest hour (hover to see other rain measurements)
** Current wind speed in m/s (hover to see current wind gust speed)